Weather in Roi Et

Thailand     16°03′10″N   103°39′20″E
temp.,
°C
wind,
m/s
gust,
m/s
humid.,
%
clouds,
%
prec.,
mm/h
press.,
hPa
HPBL,
m
14 may, fri
fri1401:00+29ssw36635 2.0 1005124
04:00+28sw247016 0.0 100496
07:00+30s466618 0.0 1006365
10:00+34ssw444767 0.0 10071544
13:00+35s234382 0.1 10041862
16:00+36sse444068 0.0 10021102
19:00+34sw2346100 0.1 100361
22:00+31s37588 0.0 1006209
15 may, sat
sat1501:00+30s36630 0.0 1005183
04:00+29s256772 0.0 1005208
07:00+29ssw356794 0.0 1007324
10:00+33ssw345185 0.0 10081380
13:00+36ssw334098 0.4 10052218
16:00+37wsw233885 0.1 10021490
19:00+32sse695482 0.6 1004374
22:00+28s7117638 0.2 1006309
16 may, sun
sun1601:00+28sw36758 0.2 1005207
04:00+27s23745 0.3 100597
07:00+29s356956 3.4 1007203
10:00+34s554927 0.0 10081255
13:00+37ssw433884 0.1 10052430
16:00+35sw224479 0.8 1003888
19:00+33w335136 0.9 100468
22:00+32ssw115759 0.4 100620
17 may, mon
mon1701:00+30w346448 0.8 100576
04:00+29w226734 0.1 100533
07:00+31sse116318 0.1 1006219
10:00+35s33469 0.0 10071542
13:00+36sw124195 0.6 10051911
16:00+37wnw123720 0.1 10021572
19:00+35wsw114498 0.1 100342
22:00+27s71177100 2.9 1007223
18 may, tue
tue1801:00+29s335697 4.6 100554
04:00+27e126986 0.8 100527
07:00+29se236795 2.2 1007224
10:00+34s445415 0.6 10081120
13:00+37s334394 0.7 10052340
16:00+35wsw3448100 0.3 1003691
19:00+33s365594 0.3 1003175
22:00+32s485799 0.0 1006272